sat.trackr.live / text

‹ back to catalog

NASBSAT-2

NORAD 67285 · 2025-313AP

PAYLOAD ACTIVE UNKNOWN

§ Identity

Operator
Country
BELA
Launch date
2025-12-28
Launch site
VOSTO
Launch vehicle
Mass (kg)
RCS (m²)

External: N2YO · Heavens-Above · Gunter

§ Orbital elements

Epoch: 2026-05-25T02:45:53.648928Z

Period
94.53 min
Inclination
97.3924°
Eccentricity
0.0011899
Mean motion
15.23371677 rev/d
Perigee alt
487.5 km
Apogee alt
503.9 km
Semi-major
6,873.8 km
B*
2.6365e-4
RAAN
220.2709°
Arg perigee
84.8015°
Mean anomaly
275.4579°
Rev number
2,245

§ Raw data

NASBSAT-21 67285U 25313AP  26145.11520427  .00006210  00000+0  26365-3 0  99952 67285  97.3924 220.2709 0011899  84.8015 275.4579 15.23371677 22454

JSON: /api/v1/satellites/67285 · /tle

For live sub-satellite position, see the globe view (requires WebGL).

§ Visibility from observer

Set your observer location to see the next 7 days of passes ≥ 10°. The values pass through the URL so the page stays shareable.

No JS? Fill the form by hand. The geolocation button needs JavaScript.

§ Radio — SatNOGS DB

ModeDescriptionDownlinkUplink
GMSK USP Mode U - GMSK2k4 - USP 401.700 MHz
GMSK USP Mode U - GMSK2k4 - USP 401.800 MHz

2 transmitters · refreshed weekly from db.satnogs.org